Overview Statistics Trail Chart Weather Telemetry Raw packets
 

This is the latest recevied weather packets stored in our database for station/object W0CHP-13. If no packets are shown the sender has not sent any weather packets the latest 10 day(s).

<< 45 46 47 48 49 50 51 >>
Time Temp. Humidity Pressure Rain* Wind** Luminosity Snow
1788007518 18.33° C 91% 1016.1 hPa 2.29 mm - 7 W/m² -
1788006916 18.33° C 91% 1015.8 hPa 2.54 mm - 6 W/m² -
1788006319 18.33° C 91% 1015.7 hPa 2.54 mm - 5 W/m² -
1788005717 18.33° C 91% 1015.7 hPa 2.54 mm - 3 W/m² -
1788005115 18.89° C 90% 1016.1 hPa 2.79 mm - 2 W/m² -
1788004517 18.89° C 90% 1016.1 hPa 3.05 mm - 1 W/m² -
1788003919 18.89° C 89% 1015.8 hPa 2.79 mm - 1 W/m² -
1788003317 18.89° C 90% 1016.1 hPa 2.29 mm - 0 W/m² -
1788002716 18.89° C 88% 1016.1 hPa 1.78 mm - 0 W/m² -
1788002118 18.89° C 87% 1016.1 hPa 1.52 mm - 0 W/m² -
1788001516 19.44° C 85% 1016.2 hPa 0.76 mm - 0 W/m² -
1788000918 19.44° C 84% 1016.5 hPa 0.25 mm - 0 W/m² -
1788000316 19.44° C 83% 1016.1 hPa 0 mm - 0 W/m² -
1787999715 19.44° C 83% 1016.1 hPa 0 mm - 0 W/m² -
1787999117 19.44° C 84% 1016.1 hPa 0 mm - 0 W/m² -
1787998516 18.89° C 85% 1016.1 hPa 0 mm - 0 W/m² -
1787997918 18.89° C 84% 1016.1 hPa 0 mm - 0 W/m² -
1787997317 18.89° C 84% 1015.8 hPa 0 mm - 0 W/m² -
1787996719 18.89° C 84% 1015.8 hPa 0 mm - 0 W/m² -
1787996117 18.89° C 84% 1015.4 hPa 0 mm - 0 W/m² -
1787995516 18.89° C 84% 1015.4 hPa 0 mm - 0 W/m² -
1787995042 18.89° C 84% 1015.3 hPa 0 mm - 0 W/m² -
1787994317 18.89° C 85% 1015.1 hPa 0 mm - 0 W/m² -
1787993718 18.89° C 85% 1015 hPa 0 mm - 0 W/m² -
1787993116 18.33° C 86% 1015.2 hPa 0 mm - 0 W/m² -

* Rain latest hour (hover to see other rain measurements)
** Current wind speed in m/s (hover to see current wind gust speed)